CST,Max TemperatureF,Mean TemperatureF,Min TemperatureF,Max Dew PointF,MeanDew PointF,Min DewpointF,Max Humidity, Mean Humidity, Min Humidity, Max Sea Level PressureIn, Mean Sea Level PressureIn, Min Sea Level PressureIn, Max VisibilityMiles, Mean VisibilityMiles, Min VisibilityMiles, Max Wind SpeedMPH, Mean Wind SpeedMPH, Max Gust SpeedMPH,PrecipitationIn, CloudCover, Events, WindDirDegrees
2013-11-1,68,52,35,27,21,18,56,30,16,30.30,30.15,30.06,10,10,10,26,9,33,0.00,0,,304
2013-11-2,66,47,28,30,22,18,69,41,17,30.39,30.31,30.23,10,10,8,16,7,20,0.00,0,,86
2013-11-3,53,43,33,48,38,23,100,77,60,30.22,30.10,29.98,10,10,10,14,5,,0.05,5,,159
2013-11-4,62,52,42,52,49,41,100,86,63,30.08,30.02,29.97,10,10,1,15,5,20,0.00,7,,164
2013-11-5,71,56,42,54,44,37,100,74,33,30.17,30.05,29.99,10,7,0,16,4,22,0.00,5,,233
2013-11-6,62,48,35,39,29,21,76,46,25,30.41,30.31,30.16,10,10,1,21,11,26,0.08,2,,19
2013-11-7,60,46,32,27,18,7,65,39,12,30.50,30.43,30.38,10,10,10,17,5,26,0.00,2,,85
2013-11-8,46,44,41,45,39,25,100,82,43,30.37,30.27,30.18,10,8,0,10,3,,0.02,8,,179
2013-11-9,71,55,37,52,41,34,100,73,27,30.26,30.21,30.17,10,6,0,15,6,23,0.00,4,,224
2013-11-10,73,53,33,43,35,28,93,59,22,30.35,30.29,30.25,10,10,10,12,5,16,0.00,0,,29
2013-11-11,73,55,37,50,41,34,93,66,38,30.34,30.29,30.23,10,10,10,15,5,18,0.00,0,,22
2013-11-12,53,44,35,46,38,32,93,83,62,30.63,30.51,30.32,10,10,5,26,14,31,0.00,6,,20
2013-11-13,55,44,33,39,35,30,93,74,47,30.60,30.45,30.28,10,10,10,14,6,17,0.00,6,,121
2013-11-14,66,50,35,45,39,30,100,73,45,30.27,30.14,30.06,10,10,7,17,5,23,0.00,2,,200
2013-11-15,73,54,35,50,42,32,100,70,27,30.10,30.02,29.93,10,8,0,17,5,24,0.03,4,,201
2013-11-16,71,56,41,52,45,39,100,68,38,29.99,29.93,29.87,10,10,8,23,8,30,0.00,3,,202
2013-11-17,69,56,42,45,37,30,81,51,28,30.18,30.09,29.96,10,10,10,22,10,31,0.00,0,,266
2013-11-18,68,54,41,37,35,30,70,51,33,30.26,30.21,30.17,10,10,9,9,4,,0.00,1,,10
2013-11-19,75,55,35,45,37,30,87,58,29,30.20,30.09,30.00,10,10,9,17,7,26,0.00,0,,207
2013-11-20,77,57,37,54,37,27,100,62,18,30.06,30.00,29.93,10,10,0,18,6,23,0.00,0,,25
2013-11-21,75,56,37,48,36,30,93,56,20,30.17,30.08,30.01,10,10,10,10,6,,0.00,0,,12
2013-11-22,48,36,24,45,27,23,100,86,65,30.36,30.29,30.16,10,7,2,23,12,26,0.00,6,,34
2013-11-23,30,27,24,27,25,23,93,90,86,30.42,30.36,30.32,10,8,2,25,15,31,0.04,8,,35
2013-11-24,28,26,23,27,22,19,93,90,86,30.36,30.31,30.22,10,7,3,17,12,23,0.00,8,,43
2013-11-25,41,37,33,32,29,27,87,74,65,30.24,30.18,30.08,10,10,10,20,13,24,0.00,6,,309
2013-11-26,46,34,21,27,19,9,93,55,25,30.44,30.36,30.24,10,10,10,23,14,32,0.00,1,,356
2013-11-27,46,30,15,27,20,12,100,66,32,30.43,30.34,30.25,10,10,10,12,5,26,0.00,0,,166
2013-11-28,59,39,19,28,25,18,100,67,31,30.33,30.26,30.22,10,10,10,10,5,,0.00,0,,31
2013-11-29,64,44,24,34,30,21,93,67,32,30.39,30.33,30.28,10,10,10,13,7,,0.00,0,,40
2013-11-30,69,48,26,37,33,25,100,65,27,30.34,30.29,30.22,10,10,10,13,6,18,0.00,0,,3